[[{"header":{"parameterUnit":"m.s-1","parameterCategory":1,"la1":30.2991,"la2":30.254,"lo1":-89.0895,"lo2":-89.0444,"dy":0.0017,"dx":0.0017,"nx":28,"ny":28,"refTime":"2025-05-28T03:00:00:Z","depth":0,"parameterNumber":2,"parameterNumberName":"U-component_of_WINDS"},"data":[0,0,0,0,0,0,0,0,0,0,0,0,0,0,0,0,0,0,0,0,0,0,0,0,0,0,0,0,0,0,0,0,0,0,0,0,0,0,0,0,0,0,0,0,0,0,0,0,0,0,0,0,0,0,0,0,0,0,1.0943,1.0945,0,1.1147,1.115,1.1152,1.1226,1.1225,1.1224,1.1223,1.1439,1.1445,1.1451,0,0,0,0,0,0,0,0,0,0,0,0,0,1.0622,1.0627,1.0943,1.0945,1.0948,1.1147,1.115,1.1153,1.1226,1.1225,1.1224,1.1223,1.1436,1.1444,1.1452,0,0,0,0,0,0,0,0,0,0,0,0,0,1.0787,1.0629,1.0942,1.1008,1.1016,1.1147,1.115,1.1153,1.1226,1.1225,1.1224,1.1223,1.1434,1.1443,1.1453,1.1534,0,0,1.1482,1.1486,0,0,0,0,0,0,0,0,1.0778,1.0799,1.0996,1.1004,1.1013,1.116,1.1116,1.1281,1.1226,1.1146,1.1223,1.1222,1.1347,1.1364,1.1405,1.1544,1.1554,1.1483,1.1489,1.1493,1.1496,0,0,0,0,0,0,0,1.0766,1.0791,1.1024,1.0999,1.1009,1.103,1.1052,1.1147,1.1251,1.1153,1.1159,1.1182,1.1352,1.1395,1.141,1.1557,1.1483,1.1491,1.1497,1.1501,1.1777,1.1778,0,0,0,0,0,0,1.0743,1.0781,1.1017,1.103,1.089,1.1036,1.1061,1.1114,1.125,1.1269,1.1183,1.1185,1.1379,1.1399,1.1418,1.1525,1.1493,1.1502,1.1507,1.1775,1.1777,1.1779,0,0,0,0,0,0,1.0736,1.0763,1.1009,1.0907,1.094,1.1043,1.1102,1.1118,1.1162,1.1272,1.1291,1.1208,1.1379,1.1405,1.1505,1.1533,1.1506,1.1515,1.1773,1.1776,1.1778,1.1737,0,0,0,0,0,0,1.0726,1.076,1.0791,1.0907,1.0945,1.1091,1.1103,1.1123,1.1178,1.1182,1.1301,1.1319,1.138,1.149,1.1515,1.1546,1.1523,1.1771,1.1774,1.1777,1.1736,1.1737,1.1738,0,0,0,0,0,1.0714,1.0772,1.0792,1.082,1.0985,1.1092,1.1114,1.1181,1.118,1.1213,1.1283,1.1316,1.1526,1.15,1.1528,1.1563,1.177,1.1774,1.1777,1.1736,1.1737,1.1738,0,0,0,0,0,0,1.0657,1.0788,1.0812,1.0908,1.0988,1.1104,1.1147,1.118,1.1264,1.1265,1.1347,1.1373,1.1468,1.1525,1.1494,1.165,1.165,1.1659,1.1609,1.1611,1.1613,1.1598,1.1531,0,0,0,0,0,1.0655,1.0729,1.0841,1.0915,1.0954,1.1043,1.1092,1.1137,1.1225,1.1259,1.1338,1.1422,1.1508,1.1563,1.1647,1.1744,1.1773,1.1782,1.1783,1.1784,1.1791,1.185,1.1856,1.179,1.179,1.179,0,0,1.0653,1.0734,1.0776,1.0905,1.0973,1.105,1.1071,1.1152,1.1211,1.1272,1.1372,1.1432,1.1533,1.1632,1.168,1.1683,1.1816,1.1788,1.1788,1.1795,1.1854,1.186,1.1866,1.1793,1.1792,1.1792,0,0,1.0689,1.0756,1.0826,1.0893,1.0995,1.1054,1.1071,1.1183,1.1225,1.1326,1.1374,1.1446,1.1591,1.1661,1.1716,1.178,1.1814,1.1805,1.1812,1.1868,1.1873,1.1878,1.1903,1.1911,1.1812,1.1812,1.1812,0,1.0674,1.079,1.0859,1.0937,1.0994,1.1051,1.1125,1.1187,1.1311,1.135,1.1351,1.1536,1.1607,1.1725,1.1741,1.1782,1.1806,1.1793,1.1866,1.1872,1.1878,1.1903,1.1912,1.181,1.181,1.1811,1.1811,0,1.0768,1.0848,1.0893,1.1011,1.1073,1.1148,1.123,1.1284,1.1324,1.1384,1.1488,1.1576,1.168,1.1711,1.1751,1.1836,1.1835,1.185,1.1852,1.1881,1.1906,1.1916,1.1808,1.1809,1.1809,1.1809,0,0,1.0774,1.0928,1.0944,1.0999,1.1116,1.118,1.1259,1.136,1.1406,1.1491,1.1561,1.1682,1.1698,1.176,1.1808,1.1857,1.1905,1.1867,1.187,1.1873,1.2007,1.1996,1.2006,1.1927,1.1929,1.1931,1.1999,0,1.0826,1.0968,1.1033,1.1147,1.1224,1.128,1.135,1.143,1.1488,1.1564,1.1629,1.1715,1.1727,1.1765,1.1816,1.1888,1.1933,1.1884,1.1996,1.1999,1.1971,1.2018,1.2007,1.2067,1.2009,1.2011,1.2012,0,1.0907,1.099,1.1111,1.1221,1.1255,1.1316,1.1415,1.1485,1.1579,1.1618,1.1687,1.1734,1.1822,1.1816,1.194,1.1905,1.1955,1.1998,1.2002,1.2017,1.2008,1.2037,1.2088,1.2097,1.2027,1.2026,1.2025,0,1.0902,1.1044,1.1136,1.1181,1.131,1.1352,1.1408,1.15,1.1557,1.1644,1.1682,1.1778,1.1832,1.1906,1.1978,1.1967,1.2096,1.2096,1.2134,1.2132,1.216,1.2158,1.2222,1.2188,1.2188,1.2188,1.2188,0,1.0955,1.1027,1.1135,1.1192,1.1276,1.135,1.1432,1.1493,1.1574,1.1646,1.17,1.1766,1.1857,1.1935,1.1992,1.2088,1.2111,1.2147,1.2162,1.2144,1.2139,1.2179,1.2177,1.219,1.219,1.2189,1.2189,0,1.0963,1.1038,1.1142,1.1256,1.1287,1.1344,1.1442,1.1501,1.1562,1.1651,1.1677,1.1774,1.1869,1.1948,1.2073,1.2112,1.2212,1.2228,1.218,1.2188,1.2222,1.2218,1.2316,1.2333,1.2285,1.2285,1.2286,0,1.0993,1.105,1.117,1.1221,1.1276,1.1358,1.1416,1.1492,1.1551,1.1663,1.1708,1.1807,1.189,1.204,1.2123,1.2219,1.224,1.2267,1.2255,1.2235,1.2243,1.224,1.2247,1.2269,1.2269,1.2269,1.2269,0,1.1039,1.1074,1.1155,1.1249,1.1317,1.1396,1.1476,1.1515,1.1607,1.1671,1.1768,1.1832,1.196,1.2058,1.2164,1.2225,1.2263,1.2272,1.2286,1.2269,1.224,1.2258,1.2185,1.227,1.227,1.227,1.227,1.227,1.1061,1.1116,1.1209,1.1298,1.1366,1.144,1.1501,1.157,1.1652,1.1761,1.1801,1.1901,1.1996,1.2142,1.2202,1.2284,1.2288,1.2308,1.2314,1.2318,1.2317,1.2225,1.2303,1.2303,1.2303,1.2303,1.2303,0,1.1112,1.1175,1.1256,1.1366,1.1437,1.1465,1.1556,1.1614,1.1701,1.1785,1.1866,1.1979,1.2075,1.2165,1.2266,1.2314,1.2334,1.2338,1.2337,1.2351,1.2306,1.2284,1.232,1.232,1.232,1.232,1.232,1.232,1.1147,1.1241,1.1286,1.1416,1.1479,1.1577,1.1627,1.1696,1.1764,1.1887,1.1967,1.2024,1.2112,1.222,1.231,1.2335,1.237,1.237,1.2399,1.2356,1.2353,1.2351,1.2331,1.2376,1.2377,1.2438,1.2438,1.2439]},{"header":{"parameterUnit":"m.s-1","parameterCategory":1,"la1":30.2991,"la2":30.254,"lo1":-89.0895,"lo2":-89.0444,"dy":0.0017,"dx":0.0017,"nx":28,"ny":28,"refTime":"2025-05-28T03:00:00:Z","depth":0,"parameterNumber":3,"parameterNumberName":"V-component_of_WINDS"},"data":[0,0,0,0,0,0,0,0,0,0,0,0,0,0,0,0,0,0,0,0,0,0,0,0,0,0,0,0,0,0,0,0,0,0,0,0,0,0,0,0,0,0,0,0,0,0,0,0,0,0,0,0,0,0,0,0,0,0,5.5451,5.5451,0,5.5456,5.5456,5.5456,5.5418,5.5417,5.5416,5.5415,5.5418,5.5419,5.5421,0,0,0,0,0,0,0,0,0,0,0,0,0,5.5408,5.5409,5.5451,5.5451,5.5451,5.5456,5.5456,5.5456,5.5418,5.5417,5.5415,5.5414,5.5418,5.5419,5.5421,0,0,0,0,0,0,0,0,0,0,0,0,0,5.5421,5.541,5.5451,5.5433,5.5431,5.5456,5.5456,5.5456,5.5418,5.5417,5.5415,5.5414,5.5418,5.5419,5.5421,5.5463,0,0,5.5426,5.5427,0,0,0,0,0,0,0,0,5.5421,5.5423,5.5435,5.5434,5.5432,5.5435,5.5442,5.5458,5.5419,5.5423,5.5415,5.5413,5.5425,5.5426,5.543,5.5463,5.5463,5.5426,5.5427,5.5428,5.5428,0,0,0,0,0,0,0,5.542,5.5422,5.5453,5.5436,5.5434,5.5424,5.5424,5.5445,5.5433,5.5423,5.542,5.5421,5.5424,5.5429,5.543,5.5463,5.5426,5.5427,5.5428,5.5429,5.5531,5.5532,0,0,0,0,0,0,5.5421,5.5422,5.5453,5.5453,5.5423,5.5426,5.5426,5.5435,5.5433,5.5431,5.5422,5.5419,5.5427,5.5428,5.543,5.5479,5.5428,5.5429,5.543,5.5529,5.5531,5.5533,0,0,0,0,0,0,5.5421,5.5425,5.5452,5.5437,5.544,5.5429,5.5439,5.5436,5.5441,5.5432,5.543,5.543,5.5426,5.5428,5.5455,5.5479,5.543,5.5431,5.5527,5.553,5.5532,5.5578,0,0,0,0,0,0,5.542,5.5424,5.544,5.5437,5.5441,5.5478,5.5441,5.5438,5.5444,5.544,5.5439,5.5437,5.5425,5.5453,5.5457,5.548,5.5433,5.5525,5.5528,5.5531,5.5574,5.5582,5.5588,0,0,0,0,0,5.5418,5.5453,5.5441,5.5445,5.546,5.5479,5.5481,5.5466,5.5446,5.5462,5.5457,5.5437,5.5476,5.5456,5.546,5.5484,5.5523,5.5527,5.5531,5.5571,5.558,5.5588,0,0,0,0,0,0,5.5458,5.5452,5.5439,5.5474,5.5478,5.5473,5.5492,5.5477,5.5485,5.5481,5.5462,5.5462,5.5493,5.5491,5.5469,5.5525,5.5496,5.5501,5.5525,5.5534,5.5541,5.554,5.5434,0,0,0,0,0,5.5471,5.5487,5.5481,5.5512,5.5515,5.5503,5.5511,5.55,5.5502,5.5503,5.55,5.5503,5.5516,5.5525,5.5536,5.5574,5.5573,5.5593,5.56,5.5605,5.561,5.563,5.5639,5.5546,5.5546,5.5546,0,0,5.5498,5.5496,5.5508,5.552,5.5521,5.5539,5.5505,5.5524,5.5537,5.5506,5.5532,5.553,5.5532,5.5565,5.5579,5.5564,5.5636,5.561,5.5615,5.5616,5.5635,5.5644,5.5652,5.5548,5.5548,5.5548,0,0,5.5555,5.5556,5.5582,5.5585,5.5587,5.558,5.5586,5.5584,5.5581,5.5607,5.5585,5.5599,5.5622,5.5625,5.5629,5.5688,5.5671,5.5692,5.5729,5.5749,5.5757,5.5763,5.5785,5.5793,5.5697,5.5697,5.5697,0,5.5588,5.5613,5.5598,5.5619,5.5625,5.5599,5.5626,5.5628,5.5635,5.564,5.5623,5.5651,5.5651,5.5684,5.5699,5.5703,5.571,5.5693,5.5757,5.5763,5.5769,5.579,5.5798,5.57,5.5699,5.5699,5.5699,0,5.5654,5.5672,5.5692,5.57,5.5709,5.5732,5.572,5.5731,5.5719,5.5713,5.574,5.5738,5.5749,5.5756,5.5744,5.5789,5.5779,5.576,5.5731,5.5781,5.58,5.5808,5.5704,5.5703,5.5702,5.5701,0,0,5.5736,5.5735,5.5743,5.5747,5.5748,5.5762,5.5784,5.5796,5.5805,5.581,5.5829,5.5849,5.5832,5.5837,5.5825,5.5843,5.5891,5.5821,5.5821,5.5835,5.594,5.5954,5.5964,5.5879,5.588,5.5881,5.594,0,5.5793,5.5832,5.5819,5.5859,5.5875,5.5851,5.5871,5.5874,5.5869,5.5882,5.5877,5.5892,5.5867,5.587,5.5886,5.5881,5.5911,5.5877,5.5896,5.5897,5.5897,5.5973,5.5989,5.6044,5.5947,5.5948,5.5949,0,5.5864,5.5873,5.5915,5.5914,5.5921,5.5939,5.5948,5.5961,5.5964,5.5959,5.5966,5.595,5.5972,5.5943,5.5973,5.595,5.5957,5.5956,5.5957,5.5959,5.5926,5.5977,5.6061,5.607,5.596,5.5959,5.5959,0,5.5921,5.5943,5.5971,5.5975,5.5975,5.5988,5.5989,5.599,5.5998,5.6006,5.6011,5.6022,5.6028,5.6036,5.6024,5.6003,5.6056,5.6025,5.6053,5.6054,5.6065,5.6065,5.6152,5.6069,5.6069,5.6069,5.6069,0,5.5986,5.6012,5.5997,5.6014,5.6044,5.6028,5.6057,5.6055,5.6057,5.6073,5.6052,5.6068,5.6051,5.6065,5.6055,5.6082,5.6085,5.6082,5.6079,5.6084,5.6085,5.6089,5.6085,5.6071,5.6071,5.607,5.607,0,5.6054,5.6045,5.6074,5.6072,5.6072,5.6094,5.6092,5.6107,5.6101,5.6122,5.6126,5.6117,5.6132,5.6121,5.6136,5.613,5.6166,5.6157,5.6165,5.6163,5.6191,5.6189,5.6285,5.6296,5.6206,5.6207,5.6207,0,5.6097,5.6117,5.6117,5.6127,5.6129,5.6145,5.6153,5.6138,5.6148,5.6153,5.6168,5.6182,5.6193,5.6219,5.6213,5.6224,5.6217,5.6249,5.6218,5.6223,5.6218,5.6217,5.6219,5.6256,5.6257,5.6257,5.6258,0,5.6173,5.6168,5.618,5.6192,5.6203,5.6211,5.6217,5.6226,5.6212,5.6223,5.6239,5.6247,5.6263,5.6278,5.6287,5.6287,5.6271,5.6268,5.6275,5.6281,5.6285,5.6283,5.6183,5.6266,5.6265,5.6265,5.6264,5.6264,5.623,5.6247,5.625,5.6265,5.6269,5.6276,5.6291,5.6287,5.63,5.6312,5.6303,5.6322,5.6325,5.6336,5.6338,5.6353,5.634,5.635,5.6353,5.6356,5.636,5.6282,5.6355,5.6354,5.6354,5.6354,5.6354,0,5.6306,5.6307,5.6321,5.6331,5.6343,5.6327,5.6333,5.6344,5.6362,5.6366,5.6377,5.6395,5.6409,5.6405,5.6417,5.643,5.6422,5.6434,5.6433,5.6433,5.6371,5.6364,5.6439,5.6439,5.6439,5.6439,5.6439,5.6439,5.6347,5.6375,5.637,5.64,5.64,5.642,5.6425,5.6431,5.6434,5.6456,5.6468,5.6465,5.6466,5.6478,5.649,5.6488,5.6494,5.6508,5.6504,5.6446,5.6437,5.6429,5.6423,5.6509,5.6509,5.6565,5.6565,5.6566]}]]